AQI (70)

Current Conditions for Foresthill, CA. Clear skies, Dry   
Visibility: 10 miles
Foresthill Advisory text: No Warning

  Summary / Temperature 

Current Temperature
45.2°F
7.3°C
(24/hr Ago)
41.6°F
(Apparent temp)
41.0°F
Cool
Wind Chill Graphs
45.2°F 

45.2°F/ 7.3°C
 --- Virtual Temp: 46.4°F ---

 Temp Rate:

 24/hr Difference:

 Avg Running Temp:

 Todays High:

 Todays Low:

 Y-days High:

 Y-days Low:

 Todays WChill:

 Y-days WChill:

 Evapotranspiration:

-0.2°F/hr 

+3.6°F

45.3°F

46.3°F 12:00am

45.0°F 3:50am

61.1°F 1:53pm

40.9°F 6:46am

39.3°F 3:42am

32.2°F 6:21am

0.001 in

115' Above Ground

 Temperature:

 6'AGL VRS 115'AGL:

 Avg Running Temp:

 Humidity:

 Todays High:

 Todays Low:

 Y-days High:

 Y-days Low:

50.0°F 

+4.8°F

50.2°F

39% 

51.0°F 12:00am

50.0°F 1:15am

63.0°F 2:56pm

44.0°F 3:53am

Temp & Humidity Graphs

  Wind 

Wind Speed

 4.0 mph

Gusting to

 9.0 mph

Wind from E

100°  E

Light breeze

 Avg speed:

 Wind Run:

 Peak Gust:

  1.0 mph 

3.0 miles

  13.0 mph 1:47am

  Almanac  

Moon age: 15 days,6 hours,41 minutes,100%

Full moon
99%
Illuminated
15 days in cycle

 Moonrise:

 Moonset:

 Sunrise:

 Sunset:

 Solar Noon:

7:11pm

6:47am

6:25am

5:58pm

12:14pm

2min 32s more daylight tomorrow 

  Solar Radiation 

(Current Solar)
  No Sun Light
(Todays High)
 None@12:00am

Rain

 Rain Today:

 Rain Rate (/hr):

 Rain last hour:

 Rain Yesterday:

 This Month:

 Season Total:

3 Days Since Last Rain Day

0.00 in

0.000 in

0.00 in

0.00 in

0.21 in

30.04 in

Updated Time

Updated: 3/6/15  4:33am

(Updated  sec ago)

Humidity & Barometer

 Humidity:

 Wetbulb:

 Dew Point:

 Barometer:

59% 

39.9°F 

31.7°F 

30.330 inHg 

 Baro Trend:  Steady 
Northern Calif
Preparedness
Fire 
Level 

    UV Index  

(Current UV)
0.0  None
(Todays High) @ 12:00am
0.0   None

Weather Underground 5 day Forecast

Fri Sat Sun Mon Tue
Clear Clear Clear Partly Cloudy Mostly Cloudy
Clear Clear Clear Partly Cloudy Mostly Cloudy
62 65 63 64 62
43 44 48 49 47

Foresthill Probe 2 Stats  
Foresthill Probe 2: is located on Thomas Street
at 3000 feet. The main Foresthill Weather site
is located on Melody ln at the 2860 foot elevation

Calm
42.8°F
6°C
Temp Rate:
-0.3°F
1.0 mph
Gusting to
2.0 mph
(Humidity)
61%
Wind from SE
127°  SE
Updated: 06/03/15 - 04:32:36
 Todays High: 45.2°F 00:02
 Todays Low: 42.8°F 04:21
 Rain Today: 0.00 in
 Season Total: 27.76 in

Foresthill Wx: Monthly,Yearly, Highs and Lows 

Foresthill  
This Weather Data is coming from the main Foresthill
Weather site located on Melody ln at the 2860 foot
elevation
Not Foresthill Probe 2
Weather Data
Month
  High
Month
  Low
Year
High
Year
Low
Temp 61.1F
3/5/15
34.6F
3/3/15
71.3F
1/24/15
29.7F
1/1/15
Humidity 94%
3/1/15
38%
3/5/15
95%
2/9/15
21%
2/24/15
Heat Index 61.6F
3/5/15
39.5F
3/4/15
70.2F
1/24/15
32.1F
1/1/15
Wind Chill 61.1F
3/5/15
28.0F
3/1/15
71.3F
1/24/15
23.5F
1/2/15
Wind Gust 29 mph
3/4/15
0 mph
3/1/15
52 mph
2/6/15
0 mph
1/1/15
Barometer 30.42 in
3/5/15
29.85 in
3/2/15
30.51 in
1/4/15
29.70 in
2/27/15
ET 0.11 in
3/5/15
0.00 in
3/1/15
0.15 in
2/23/15
0.00 in
1/1/15
Dew Point 44.0F
3/5/15
24.1F
3/4/15
52.7F
2/19/15
10.0F
1/1/15
Infrared Satellite Regional Radar Satellite Imagery Sacramento,CA.  (click to enlarge)
NWS Weather Forecast - Outlook: Today and Tonight
Today

Sunny
Sunny

Hi 68 °F
NWS forecast: Sunny, with a high near 68. East northeast wind 5 to 7 mph becoming calm.
Tonight

Clear
Clear

Lo 40 °F
NWS forecast: Clear, with a low around 40. East wind 5 to 8 mph.
NWS Weather Forecast - Summary
Updated: Friday, March 6, 2015 - 3:32am (PST)
YR.NO 10 Day Weather forecast
Last update: 03/05/2015 @ 23:04
Next update: 03/06/2015 @ 12:00
Provided by: 22
      Temperature Precipitation Pressure Wind  
Today
03/06/2015
04:00 07:00 34°F   30.26 inHg Light breeze from east-northeast 5 mph
  07:00 13:00 34°F   30.25 inHg Light breeze from east-northeast 5 mph
  13:00 19:00 66°F   30.17 inHg Light breeze from west 4 mph
  19:00 01:00 54°F   30.16 inHg Light air from east 3 mph
    (Click to enlarge)
meteogram

    Forecast for next 9 days

      Temperature Precip Pressure Wind  
Saturday
03/07/2015
01:00 07:00 39°F   30.14 inHg Light breeze from east-northeast 7 mph
  07:00 13:00 37°F   30.12 inHg Light breeze from east-northeast 6 mph
  13:00 20:00 64°F   30.06 inHg Light breeze from west-southwest 6 mph
  20:00 03:00 55°F   30.06 inHg Light air from east-northeast 2 mph
      Temperature Precip Pressure Wind  
Sunday
03/08/2015
03:00 08:00 39°F   30.07 inHg Light breeze from east-northeast 4 mph
  05:00 11:00 36°F   30.06 inHg Light breeze from east-northeast 5 mph
  11:00 17:00 63°F   30.09 inHg Light air from west-southwest 1 mph
  17:00 23:00 64°F   30.03 inHg Light breeze from west 5 mph
  23:00 05:00 41°F   30.06 inHg Light breeze from east-northeast 5 mph
      Temperature Precip Pressure Wind  
Monday
03/09/2015
05:00 11:00 37°F   29.99 inHg Light breeze from east-northeast 7 mph
  11:00 17:00 63°F   30.02 inHg Light air from west-northwest 1 mph
  17:00 23:00 63°F   29.96 inHg Light breeze from west-southwest 4 mph
  23:00 05:00 43°F   29.97 inHg Light breeze from east-northeast 6 mph
      Temperature Precip Pressure Wind  
Tuesday
03/10/2015
05:00 11:00 39°F   29.98 inHg Light breeze from east-northeast 5 mph
  11:00 17:00 64°F   29.99 inHg Light air from south-southeast 3 mph
  17:00 23:00 63°F   29.95 inHg Light breeze from west-southwest 4 mph
  23:00 05:00 50°F   30.00 inHg Light air from east 1 mph
      Temperature Precip Pressure Wind  
Wednesday
03/11/2015
05:00 11:00 48°F 0.04 in 29.96 inHg Light breeze from east 4 mph
  11:00 17:00 57°F   30.04 inHg Light air from east-southeast 2 mph
  17:00 23:00 59°F   30.00 inHg Light breeze from south-southwest 5 mph
  23:00 05:00 50°F   30.11 inHg Light breeze from south-southeast 4 mph
      Temperature Precip Pressure Wind  
Thursday
03/12/2015
05:00 11:00 48°F   30.12 inHg Light air from east-southeast 3 mph
  11:00 17:00 54°F   30.18 inHg Light air from south-southwest 1 mph
  17:00 23:00 59°F   30.12 inHg Light breeze from west-northwest 6 mph
  23:00 05:00 43°F   30.13 inHg Light breeze from east-northeast 5 mph
      Temperature Precip Pressure Wind  
Friday
03/13/2015
05:00 11:00 43°F   30.07 inHg Gentle breeze from east-northeast 8 mph
  11:00 17:00 64°F   30.07 inHg Gentle breeze from east-northeast 9 mph
  17:00 23:00 68°F   29.97 inHg Light breeze from north-northeast 4 mph
  23:00 05:00 50°F   30.03 inHg Gentle breeze from east-northeast 9 mph
      Temperature Precip Pressure Wind  
Saturday
03/14/2015
05:00 11:00 45°F   30.03 inHg Gentle breeze from east-northeast 8 mph
  11:00 17:00 66°F   30.01 inHg Light breeze from east 5 mph
  17:00 23:00 66°F   30.03 inHg Light breeze from south-southwest 4 mph
  23:00 05:00 50°F   30.13 inHg Light air from east 2 mph
      Temperature Precip Pressure Wind  
Sunday
03/15/2015
05:00 11:00 46°F < 0.01 in 30.13 inHg Light air from east-northeast 3 mph
  11:00 17:00 61°F   30.20 inHg Light breeze from south-southwest 5 mph

Weather History For Friday, March 6, 2015


On this Day - In Weather History ...
Data courtesy of weatherforyou.com
powered by Cumulus v1.9.3 (1059)
Ambient Weather VWS v14.00
Top Contact Website Map Copyright © 2007 - 2015 Foresthillweather.com Never base important decisions on this or any weather information obtained from the Internet